EW4229 Weather Reports


Display with metric or nautical units.
time (UTC)temp
F
wind
direction
speed
MPH
gust
MPH
rain 1hr
in
rain 24hr
in
rain mn
in
humidity
%
barometer
mb
20200408173055 68 333 11.0 17.0 0.00 0.56 0.56 58 989.8
20200408171531 68 298 7.0 17.0 0.00 0.56 0.56 62 990.0
20200408170027 66 315 3.0 9.0 0.00 0.56 0.56 64 990.0
20200408163109 65 286 5.0 12.0 0.00 0.56 0.56 64 990.1
20200408161629 65 304 3.0 8.0 0.00 0.56 0.56 66 990.1
20200408160112 64 300 5.0 9.0 0.00 0.56 0.56 67 990.1
20200408153052 64 295 7.0 16.0 0.00 0.56 0.56 66 989.9
20200408151526 64 260 8.0 14.0 0.00 0.56 0.56 68 990.0
20200408150015 64 343 7.0 12.0 0.00 0.56 0.56 68 990.1
20200408143050 63 305 7.0 15.0 0.00 0.56 0.56 71 990.0
20200408141540 63 300 10.0 17.0 0.00 0.56 0.56 71 989.9
20200408140015 63 307 7.0 15.0 0.00 0.56 0.56 70 989.7
20200408133008 62 276 8.0 15.0 0.00 0.56 0.56 72 989.6
20200408131506 61 302 4.0 7.0 0.00 0.56 0.56 77 989.5
20200408130008 60 302 1.0 5.0 0.00 0.56 0.56 82 989.4
20200408123156 58 293 1.0 3.0 0.00 0.56 0.56 87 989.4
20200408121610 56 308 2.0 4.0 0.00 0.56 0.56 90 989.4
20200408120440 54 264 1.0 3.0 0.00 0.56 0.56 94 989.2
20200408113158 53 276 0.0 1.0 0.00 0.56 0.56 94 988.7
20200408111721 53 307 0.0 0.0 0.00 0.56 0.56 94 988.4
20200408110126 54 327 0.0 0.0 0.00 0.56 0.56 93 988.1
20200408103219 54 297 0.0 2.0 0.00 0.56 0.56 94 988.2
20200408101650 54 321 0.0 2.0 0.00 0.56 0.56 92 987.9
20200408100210 54 300 2.0 5.0 0.00 0.56 0.56 92 987.8
20200408093312 55 334 2.0 10.0 0.00 0.56 0.56 90 988.0
20200408090200 55 146 0.0 3.0 0.09 0.56 0.56 93 986.9
20200408083211 56 226 1.0 5.0 0.20 0.56 0.56 93 988.2
20200408081639 56 314 2.0 6.0 0.40 0.56 0.56 94 989.0
20200408080127 56 310 2.0 6.0 0.52 0.56 0.56 94 989.6
20200408073158 57 281 4.0 15.0 0.40 0.40 0.40 94 990.8
20200408071647 56 304 4.0 10.0 0.35 0.35 0.35 93 990.7
20200408070052 57 278 4.0 26.0 0.07 0.07 0.07 91 989.9
20200408063118 58 243 0.0 0.0 0.01 0.01 0.01 89 988.5
20200408061611 58 181 0.0 4.0 0.00 0.00 0.00 87 988.6
20200408060059 58 91 1.0 5.0 0.00 0.00 0.00 87 989.0
20200408053052 56 113 0.0 0.0 0.00 0.00 0.00 89 989.4
20200408051543 56 236 0.0 0.0 0.00 0.00 0.00 89 990.0
20200408050053 55 236 0.0 1.0 0.00 0.00 0.00 88 990.3
20200408043039 54 275 0.0 0.0 0.00 0.00 0.00 90 990.9
20200408041553 53 275 0.0 0.0 0.00 0.00 0.00 90 991.3
20200408040042 53 275 0.0 0.0 0.00 0.00 0.00 89 991.8
20200408033122 56 266 0.0 0.0 0.00 0.00 0.00 85 992.1
20200408031552 57 266 0.0 1.0 0.00 0.00 0.00 83 992.1
20200408030028 58 272 0.0 1.0 0.00 0.00 0.00 83 992.4
20200408023014 57 279 0.0 0.0 0.00 0.00 0.00 85 993.4
20200408021510 57 279 0.0 0.0 0.00 0.00 0.00 84 993.8
20200408020035 57 279 0.0 0.0 0.00 0.00 0.00 83 993.9
20200408013007 59 142 0.0 0.0 0.00 0.00 0.00 80 994.2
20200408011516 59 156 0.0 3.0 0.00 0.00 0.00 79 994.1
20200408010010 60 160 0.0 1.0 0.00 0.00 0.00 78 994.4
20200408003004 61 169 1.0 2.0 0.00 0.00 0.00 75 994.4
20200408001503 61 160 0.0 5.0 0.00 0.00 0.00 74 994.4
20200408000007 62 181 0.0 8.0 0.00 0.00 0.00 71 994.7
20200407233008 64 127 1.0 6.0 0.00 0.00 0.00 67 994.4
20200407231651 65 68 1.0 6.0 0.00 0.00 0.00 64 994.8
20200407230250 65 150 0.0 3.0 0.00 0.00 0.00 59 994.7
20200407223124 66 127 0.0 6.0 0.00 0.00 0.00 55 994.8
20200407221644 68 137 0.0 2.0 0.00 0.00 0.00 54 994.8
20200407220108 68 174 0.0 4.0 0.00 0.00 0.00 49 994.9
20200407213245 70 166 0.0 3.0 0.00 0.00 0.00 47 994.9
20200407211629 69 172 2.0 7.0 0.00 0.00 0.00 46 994.9
20200407210225 69 136 2.0 7.0 0.00 0.00 0.00 44 995.1
20200407203214 69 172 3.0 6.0 0.00 0.00 0.00 40 996.0
20200407201634 69 132 0.0 2.0 0.00 0.00 0.00 44 996.3
20200407200250 68 319 1.0 6.0 0.00 0.00 0.00 43 996.7
20200407193100 66 300 1.0 7.0 0.00 0.00 0.00 44 997.3
20200407191745 66 347 2.0 7.0 0.00 0.00 0.00 42 997.5
20200407190055 66 213 2.0 7.0 0.00 0.00 0.00 40 997.9
20200407183043 64 334 2.0 5.0 0.00 0.00 0.00 41 998.9
20200407181558 64 6 0.0 5.0 0.00 0.00 0.00 41 999.2
20200407180028 65 330 0.0 4.0 0.00 0.00 0.00 40 999.5